Year,Month,Day,Hour,Minute,Value (Times are PST for temperature in C)
2020,10,06,00,00,13.40
2020,10,06,00,01,13.40
2020,10,06,00,02,13.40
2020,10,06,00,03,13.30
2020,10,06,00,04,13.30
2020,10,06,00,05,13.30
2020,10,06,00,06,13.30
2020,10,06,00,07,13.30
2020,10,06,00,08,13.30
2020,10,06,00,09,13.30
2020,10,06,00,10,13.30
2020,10,06,00,11,13.30
2020,10,06,00,12,13.30
2020,10,06,00,13,13.20
2020,10,06,00,14,13.20
2020,10,06,00,15,13.20
2020,10,06,00,16,13.20
2020,10,06,00,17,13.20
2020,10,06,00,18,13.20
2020,10,06,00,19,13.20
2020,10,06,00,20,13.20
2020,10,06,00,21,13.10
2020,10,06,00,22,13.10
2020,10,06,00,23,13.10
2020,10,06,00,24,13.10
2020,10,06,00,25,13.10
2020,10,06,00,26,13.10
2020,10,06,00,27,13.10
2020,10,06,00,28,13.10
2020,10,06,00,29,13.10
2020,10,06,00,30,13.10
2020,10,06,00,31,13.10
2020,10,06,00,32,13.10
2020,10,06,00,33,13.10
2020,10,06,00,34,13.00
2020,10,06,00,35,13.00
2020,10,06,00,36,13.00
2020,10,06,00,37,13.00
2020,10,06,00,38,13.00
2020,10,06,00,39,13.00
2020,10,06,00,40,13.00
2020,10,06,00,41,13.00
2020,10,06,00,42,13.00
2020,10,06,00,43,13.00
2020,10,06,00,44,13.00
2020,10,06,00,45,13.00
2020,10,06,00,46,13.00
2020,10,06,00,47,13.00
2020,10,06,00,48,13.00
2020,10,06,00,49,13.00
2020,10,06,00,50,13.00
2020,10,06,00,51,13.00
2020,10,06,00,52,13.00
2020,10,06,00,53,13.00
2020,10,06,00,54,13.10
2020,10,06,00,55,13.10
2020,10,06,00,56,13.00
2020,10,06,00,57,13.10
2020,10,06,00,58,13.10
2020,10,06,00,59,13.10
2020,10,06,01,00,13.10
2020,10,06,01,01,13.10
2020,10,06,01,02,13.10
2020,10,06,01,03,13.10
2020,10,06,01,04,13.10
2020,10,06,01,05,13.10
2020,10,06,01,06,13.10
2020,10,06,01,07,13.10
2020,10,06,01,08,13.10
2020,10,06,01,09,13.10
2020,10,06,01,10,13.00
2020,10,06,01,11,13.00
2020,10,06,01,12,13.00
2020,10,06,01,13,13.00
2020,10,06,01,14,13.00
2020,10,06,01,15,12.90
2020,10,06,01,16,13.00
2020,10,06,01,17,13.00
2020,10,06,01,18,13.00
2020,10,06,01,19,13.00
2020,10,06,01,20,13.00
2020,10,06,01,21,13.00
2020,10,06,01,22,13.00
2020,10,06,01,23,13.00
2020,10,06,01,24,13.00
2020,10,06,01,25,13.10
2020,10,06,01,26,13.10
2020,10,06,01,27,13.10
2020,10,06,01,28,13.10
2020,10,06,01,29,13.10
2020,10,06,01,30,13.10
2020,10,06,01,31,13.10
2020,10,06,01,32,13.00
2020,10,06,01,33,13.00
2020,10,06,01,34,13.00
2020,10,06,01,35,13.00
2020,10,06,01,36,13.00
2020,10,06,01,37,13.00
2020,10,06,01,38,13.00
2020,10,06,01,39,13.00
2020,10,06,01,40,13.00
2020,10,06,01,41,12.90
2020,10,06,01,42,12.90
2020,10,06,01,43,12.90
2020,10,06,01,44,12.90
2020,10,06,01,45,12.90
2020,10,06,01,46,12.90
2020,10,06,01,47,12.90
2020,10,06,01,48,12.80
2020,10,06,01,49,12.80
2020,10,06,01,50,12.80
2020,10,06,01,51,12.80
2020,10,06,01,52,12.70
2020,10,06,01,53,12.70
2020,10,06,01,54,12.70
2020,10,06,01,55,12.70
2020,10,06,01,56,12.70
2020,10,06,01,57,12.70
2020,10,06,01,58,12.70
2020,10,06,01,59,12.70
2020,10,06,02,00,12.60
2020,10,06,02,01,12.60
2020,10,06,02,02,12.60
2020,10,06,02,03,12.60
2020,10,06,02,04,12.60
2020,10,06,02,05,12.60
2020,10,06,02,06,12.60
2020,10,06,02,07,12.60
2020,10,06,02,08,12.60
2020,10,06,02,09,12.60
2020,10,06,02,10,12.70
2020,10,06,02,11,12.60
2020,10,06,02,12,12.60
2020,10,06,02,13,12.60
2020,10,06,02,14,12.60
2020,10,06,02,15,12.60
2020,10,06,02,16,12.60
2020,10,06,02,17,12.60
2020,10,06,02,18,12.60
2020,10,06,02,19,12.60
2020,10,06,02,20,12.60
2020,10,06,02,21,12.60
2020,10,06,02,22,12.60
2020,10,06,02,23,12.60
2020,10,06,02,24,12.60
2020,10,06,02,25,12.60
2020,10,06,02,26,12.60
2020,10,06,02,27,12.60
2020,10,06,02,28,12.60
2020,10,06,02,29,12.60
2020,10,06,02,30,12.60
2020,10,06,02,31,12.70
2020,10,06,02,32,12.60
2020,10,06,02,33,12.70
2020,10,06,02,34,12.70
2020,10,06,02,35,12.70
2020,10,06,02,36,12.70
2020,10,06,02,37,12.70
2020,10,06,02,38,12.70
2020,10,06,02,39,12.70
2020,10,06,02,40,12.70
2020,10,06,02,41,12.70
2020,10,06,02,42,12.70
2020,10,06,02,43,12.70
2020,10,06,02,44,12.70
2020,10,06,02,45,12.70
2020,10,06,02,46,12.70
2020,10,06,02,47,12.70
2020,10,06,02,48,12.70
2020,10,06,02,49,12.80
2020,10,06,02,50,12.80
2020,10,06,02,51,12.80
2020,10,06,02,52,12.80
2020,10,06,02,53,12.80
2020,10,06,02,54,12.80
2020,10,06,02,55,12.80
2020,10,06,02,56,12.80
2020,10,06,02,57,12.80
2020,10,06,02,58,12.80
2020,10,06,02,59,12.80
2020,10,06,03,00,12.80
2020,10,06,03,01,12.80
2020,10,06,03,02,12.80
2020,10,06,03,03,12.80
2020,10,06,03,04,12.80
2020,10,06,03,05,12.80
2020,10,06,03,06,12.80
2020,10,06,03,07,12.80
2020,10,06,03,08,12.80
2020,10,06,03,09,12.80
2020,10,06,03,10,12.80
2020,10,06,03,11,12.80
2020,10,06,03,12,12.80
2020,10,06,03,13,12.80
2020,10,06,03,14,12.80
2020,10,06,03,15,12.80
2020,10,06,03,16,12.80
2020,10,06,03,17,12.80
2020,10,06,03,18,12.80
2020,10,06,03,19,12.80
2020,10,06,03,20,12.80
2020,10,06,03,21,12.80
2020,10,06,03,22,12.80
2020,10,06,03,23,12.80
2020,10,06,03,24,12.80
2020,10,06,03,25,12.80
2020,10,06,03,26,12.80
2020,10,06,03,27,12.80
2020,10,06,03,28,12.90
2020,10,06,03,29,12.80
2020,10,06,03,30,12.90
2020,10,06,03,31,12.90
2020,10,06,03,32,12.90
2020,10,06,03,33,12.90
2020,10,06,03,34,12.90
2020,10,06,03,35,12.90
2020,10,06,03,36,12.90
2020,10,06,03,37,12.90
2020,10,06,03,38,12.90
2020,10,06,03,39,12.90
2020,10,06,03,40,12.90
2020,10,06,03,41,12.90
2020,10,06,03,42,12.90
2020,10,06,03,43,12.90
2020,10,06,03,44,12.90
2020,10,06,03,45,12.90
2020,10,06,03,46,12.90
2020,10,06,03,47,12.90
2020,10,06,03,48,12.90
2020,10,06,03,49,12.90
2020,10,06,03,50,12.90
2020,10,06,03,51,12.90
2020,10,06,03,52,12.90
2020,10,06,03,53,12.90
2020,10,06,03,54,12.90
2020,10,06,03,55,12.90
2020,10,06,03,56,12.90
2020,10,06,03,57,12.90
2020,10,06,03,58,12.90
2020,10,06,03,59,12.90
2020,10,06,04,00,12.90
2020,10,06,04,01,12.90
2020,10,06,04,02,13.00
2020,10,06,04,03,13.00
2020,10,06,04,04,13.00
2020,10,06,04,05,13.00
2020,10,06,04,06,12.90
2020,10,06,04,07,12.90
2020,10,06,04,08,12.90
2020,10,06,04,09,12.90
2020,10,06,04,10,12.90
2020,10,06,04,11,12.90
2020,10,06,04,12,12.90
2020,10,06,04,13,12.90
2020,10,06,04,14,13.00
2020,10,06,04,15,13.00
2020,10,06,04,16,13.00
2020,10,06,04,17,13.00
2020,10,06,04,18,13.00
2020,10,06,04,19,13.00
2020,10,06,04,20,13.00
2020,10,06,04,21,13.00
2020,10,06,04,22,13.00
2020,10,06,04,23,13.00
2020,10,06,04,24,13.10
2020,10,06,04,25,13.10
2020,10,06,04,26,13.10
2020,10,06,04,27,13.10
2020,10,06,04,28,13.10
2020,10,06,04,29,13.10
2020,10,06,04,30,13.10
2020,10,06,04,31,13.10
2020,10,06,04,32,13.10
2020,10,06,04,33,13.10
2020,10,06,04,34,13.10
2020,10,06,04,35,13.10
2020,10,06,04,36,13.10
2020,10,06,04,37,13.10
2020,10,06,04,38,13.10
2020,10,06,04,39,13.10
2020,10,06,04,40,13.10
2020,10,06,04,41,13.20
2020,10,06,04,42,13.20
2020,10,06,04,43,13.10
2020,10,06,04,44,13.10
2020,10,06,04,45,13.10
2020,10,06,04,46,13.10
2020,10,06,04,47,13.10
2020,10,06,04,48,13.10
2020,10,06,04,49,13.10
2020,10,06,04,50,13.10
2020,10,06,04,51,13.10
2020,10,06,04,52,13.10
2020,10,06,04,53,13.10
2020,10,06,04,54,13.10
2020,10,06,04,55,13.10
2020,10,06,04,56,13.10
2020,10,06,04,57,13.10
2020,10,06,04,58,13.10
2020,10,06,04,59,13.10
2020,10,06,05,00,13.10
2020,10,06,05,01,13.10
2020,10,06,05,02,13.10
2020,10,06,05,03,13.10
2020,10,06,05,04,13.10
2020,10,06,05,05,13.10
2020,10,06,05,06,13.10
2020,10,06,05,07,13.10
2020,10,06,05,08,13.10
2020,10,06,05,09,13.10
2020,10,06,05,10,13.10
2020,10,06,05,11,13.10
2020,10,06,05,12,13.10
2020,10,06,05,13,13.10
2020,10,06,05,14,13.10
2020,10,06,05,15,13.00
2020,10,06,05,16,13.00
2020,10,06,05,17,13.00
2020,10,06,05,18,13.00
2020,10,06,05,19,13.00
2020,10,06,05,20,13.00
2020,10,06,05,21,13.00
2020,10,06,05,22,13.00
2020,10,06,05,23,13.00
2020,10,06,05,24,13.00
2020,10,06,05,25,13.00
2020,10,06,05,26,13.00
2020,10,06,05,27,13.00
2020,10,06,05,28,13.00
2020,10,06,05,29,13.00
2020,10,06,05,30,13.00
2020,10,06,05,31,13.00
2020,10,06,05,32,13.00
2020,10,06,05,33,13.00
2020,10,06,05,34,13.00
2020,10,06,05,35,13.00
2020,10,06,05,36,13.00
2020,10,06,05,37,13.10
2020,10,06,05,38,13.00
2020,10,06,05,39,13.10
2020,10,06,05,40,13.10
2020,10,06,05,41,13.10
2020,10,06,05,42,13.10
2020,10,06,05,43,13.10
2020,10,06,05,44,13.00
2020,10,06,05,45,13.10
2020,10,06,05,46,13.10
2020,10,06,05,47,13.10
2020,10,06,05,48,13.10
2020,10,06,05,49,13.10
2020,10,06,05,50,13.10
2020,10,06,05,51,13.10
2020,10,06,05,52,13.10
2020,10,06,05,53,13.10
2020,10,06,05,54,13.10
2020,10,06,05,55,13.10
2020,10,06,05,56,13.10
2020,10,06,05,57,13.10
2020,10,06,05,58,13.10
2020,10,06,05,59,13.10
2020,10,06,06,00,13.10
2020,10,06,06,01,13.10
2020,10,06,06,02,13.10
2020,10,06,06,03,13.20
2020,10,06,06,04,13.20
2020,10,06,06,05,13.20
2020,10,06,06,06,13.20
2020,10,06,06,07,13.20
2020,10,06,06,08,13.20
2020,10,06,06,09,13.20
2020,10,06,06,10,13.20
2020,10,06,06,11,13.20
2020,10,06,06,12,13.20
2020,10,06,06,13,13.20
2020,10,06,06,14,13.20
2020,10,06,06,15,13.20
2020,10,06,06,16,13.20
2020,10,06,06,17,13.20
2020,10,06,06,18,13.20
2020,10,06,06,19,13.20
2020,10,06,06,20,13.20
2020,10,06,06,21,13.20
2020,10,06,06,22,13.20
2020,10,06,06,23,13.20
2020,10,06,06,24,13.20
2020,10,06,06,25,13.20
2020,10,06,06,26,13.20
2020,10,06,06,27,13.20
2020,10,06,06,28,13.20
2020,10,06,06,29,13.20
2020,10,06,06,30,13.20
2020,10,06,06,31,13.30
2020,10,06,06,32,13.30
2020,10,06,06,33,13.20
2020,10,06,06,34,13.30
2020,10,06,06,35,13.30
2020,10,06,06,36,13.30
2020,10,06,06,37,13.30
2020,10,06,06,38,13.30
2020,10,06,06,39,13.30
2020,10,06,06,40,13.30
2020,10,06,06,41,13.30
2020,10,06,06,42,13.30
2020,10,06,06,43,13.30
2020,10,06,06,44,13.30
2020,10,06,06,45,13.30
2020,10,06,06,46,13.30
2020,10,06,06,47,13.30
2020,10,06,06,48,13.30
2020,10,06,06,49,13.30
2020,10,06,06,50,13.30
2020,10,06,06,51,13.30
2020,10,06,06,52,13.30
2020,10,06,06,53,13.30
2020,10,06,06,54,13.30
2020,10,06,06,55,13.30
2020,10,06,06,56,13.30
2020,10,06,06,57,13.30
2020,10,06,06,58,13.30
2020,10,06,06,59,13.30
2020,10,06,07,00,13.30
2020,10,06,07,01,13.30
2020,10,06,07,02,13.30
2020,10,06,07,03,13.30
2020,10,06,07,04,13.30
2020,10,06,07,05,13.30
2020,10,06,07,06,13.30
2020,10,06,07,07,13.30
2020,10,06,07,08,13.30
2020,10,06,07,09,13.40
2020,10,06,07,10,13.40
2020,10,06,07,11,13.40
2020,10,06,07,12,13.40
2020,10,06,07,13,13.40
2020,10,06,07,14,13.40
2020,10,06,07,15,13.40
2020,10,06,07,16,13.40
2020,10,06,07,17,13.50
2020,10,06,07,18,13.50
2020,10,06,07,19,13.50
2020,10,06,07,20,13.50
2020,10,06,07,21,13.40
2020,10,06,07,22,13.40
2020,10,06,07,23,13.40
2020,10,06,07,24,13.40
2020,10,06,07,25,13.40
2020,10,06,07,26,13.40
2020,10,06,07,27,13.40
2020,10,06,07,28,13.40
2020,10,06,07,29,13.40
2020,10,06,07,30,13.40
2020,10,06,07,31,13.30
2020,10,06,07,32,13.30
2020,10,06,07,33,13.30
2020,10,06,07,34,13.30
2020,10,06,07,35,13.30
2020,10,06,07,36,13.30
2020,10,06,07,37,13.30
2020,10,06,07,38,13.30
2020,10,06,07,39,13.30
2020,10,06,07,40,13.30
2020,10,06,07,41,13.20
2020,10,06,07,42,13.20
2020,10,06,07,43,13.20
2020,10,06,07,44,13.20
2020,10,06,07,45,13.20
2020,10,06,07,46,13.20
2020,10,06,07,47,13.20
2020,10,06,07,48,13.20
2020,10,06,07,49,13.20
2020,10,06,07,50,13.10
2020,10,06,07,51,13.10
2020,10,06,07,52,13.10
2020,10,06,07,53,13.10
2020,10,06,07,54,13.10
2020,10,06,07,55,13.10
2020,10,06,07,56,13.10
2020,10,06,07,57,13.10
2020,10,06,07,58,13.10
2020,10,06,07,59,13.10
2020,10,06,08,00,13.10
2020,10,06,08,01,13.10
2020,10,06,08,02,13.10
2020,10,06,08,03,13.10
2020,10,06,08,04,13.10
2020,10,06,08,05,13.10
2020,10,06,08,06,13.10
2020,10,06,08,07,13.10
2020,10,06,08,08,13.10
2020,10,06,08,09,13.10
2020,10,06,08,10,13.10
2020,10,06,08,11,13.10
2020,10,06,08,12,13.10
2020,10,06,08,13,13.20
2020,10,06,08,14,13.20
2020,10,06,08,15,13.20
2020,10,06,08,16,13.20
2020,10,06,08,17,13.20
2020,10,06,08,18,13.30
2020,10,06,08,19,13.30
2020,10,06,08,20,13.30
2020,10,06,08,21,13.30
2020,10,06,08,22,13.30
2020,10,06,08,23,13.30
2020,10,06,08,24,13.30
2020,10,06,08,25,13.30
2020,10,06,08,26,13.30
2020,10,06,08,27,13.30
2020,10,06,08,28,13.30
2020,10,06,08,29,13.30
2020,10,06,08,30,13.30
2020,10,06,08,31,13.30
2020,10,06,08,32,13.30
2020,10,06,08,33,13.40
2020,10,06,08,34,13.30
2020,10,06,08,35,13.30
2020,10,06,08,36,13.40
2020,10,06,08,37,13.30
2020,10,06,08,38,13.40
2020,10,06,08,39,13.40
2020,10,06,08,40,13.30
2020,10,06,08,41,13.40
2020,10,06,08,42,13.40
2020,10,06,08,43,13.40
2020,10,06,08,44,13.40
2020,10,06,08,45,13.40
2020,10,06,08,46,13.40
2020,10,06,08,47,13.40
2020,10,06,08,48,13.40
2020,10,06,08,49,13.40
2020,10,06,08,50,13.40
2020,10,06,08,51,13.50
2020,10,06,08,52,13.50
2020,10,06,08,53,13.50
2020,10,06,08,54,13.50
2020,10,06,08,55,13.60
2020,10,06,08,56,13.60
2020,10,06,08,57,13.60
2020,10,06,08,58,13.60
2020,10,06,08,59,13.60
2020,10,06,09,00,13.60
2020,10,06,09,01,13.60
2020,10,06,09,02,13.70
2020,10,06,09,03,13.70
2020,10,06,09,04,13.70
2020,10,06,09,05,13.70
2020,10,06,09,06,13.70
2020,10,06,09,07,13.80
2020,10,06,09,08,13.80
2020,10,06,09,09,13.80
2020,10,06,09,10,13.80
2020,10,06,09,11,13.90
2020,10,06,09,12,13.90
2020,10,06,09,13,13.90
2020,10,06,09,14,14.00
2020,10,06,09,15,14.00
2020,10,06,09,16,14.00
2020,10,06,09,17,14.10
2020,10,06,09,18,14.10
2020,10,06,09,19,14.10
2020,10,06,09,20,14.10
2020,10,06,09,21,14.10
2020,10,06,09,22,14.10
2020,10,06,09,23,14.20
2020,10,06,09,24,14.20
2020,10,06,09,25,14.20
2020,10,06,09,26,14.20
2020,10,06,09,27,14.20
2020,10,06,09,28,14.30
2020,10,06,09,29,14.30
2020,10,06,09,30,14.30
2020,10,06,09,31,14.30
2020,10,06,09,32,14.30
2020,10,06,09,33,14.30
2020,10,06,09,34,14.30
2020,10,06,09,35,14.40
2020,10,06,09,36,14.40
2020,10,06,09,37,14.40
2020,10,06,09,38,14.40
2020,10,06,09,39,14.40
2020,10,06,09,40,14.40
2020,10,06,09,41,14.40
2020,10,06,09,42,14.40
2020,10,06,09,43,14.40
2020,10,06,09,44,14.40
2020,10,06,09,45,14.40
2020,10,06,09,46,14.40
2020,10,06,09,47,14.40
2020,10,06,09,48,14.40
2020,10,06,09,49,14.40
2020,10,06,09,50,14.40
2020,10,06,09,51,14.40
2020,10,06,09,52,14.40
2020,10,06,09,53,14.40
2020,10,06,09,54,14.40
2020,10,06,09,55,14.30
2020,10,06,09,56,14.30
2020,10,06,09,57,14.30
2020,10,06,09,58,14.30
2020,10,06,09,59,14.20
2020,10,06,10,00,14.30
2020,10,06,10,01,14.20
2020,10,06,10,02,14.20
2020,10,06,10,03,14.20
2020,10,06,10,04,14.20
2020,10,06,10,05,14.20
2020,10,06,10,06,14.20
2020,10,06,10,07,14.20
2020,10,06,10,08,14.20
2020,10,06,10,09,14.20
2020,10,06,10,10,14.20
2020,10,06,10,11,14.10
2020,10,06,10,12,14.10
2020,10,06,10,13,14.10
2020,10,06,10,14,14.10
2020,10,06,10,15,14.10
2020,10,06,10,16,14.20
2020,10,06,10,17,14.20
2020,10,06,10,18,14.20
2020,10,06,10,19,14.20
2020,10,06,10,20,14.20
2020,10,06,10,21,14.20
2020,10,06,10,22,14.20
2020,10,06,10,23,14.20
2020,10,06,10,24,14.20
2020,10,06,10,25,14.20
2020,10,06,10,26,14.20
2020,10,06,10,27,14.20
2020,10,06,10,28,14.20
2020,10,06,10,29,14.30
2020,10,06,10,30,14.30
2020,10,06,10,31,14.30
2020,10,06,10,32,14.30
2020,10,06,10,33,14.30
2020,10,06,10,34,14.30
2020,10,06,10,35,14.30
2020,10,06,10,36,14.30
2020,10,06,10,37,14.30
2020,10,06,10,38,14.40
2020,10,06,10,39,14.40
2020,10,06,10,40,14.40
2020,10,06,10,41,14.40
2020,10,06,10,42,14.40
2020,10,06,10,43,14.50
2020,10,06,10,44,14.50
2020,10,06,10,45,14.50
2020,10,06,10,46,14.60
2020,10,06,10,47,14.60
2020,10,06,10,48,14.60
2020,10,06,10,49,14.60
2020,10,06,10,50,14.60
2020,10,06,10,51,14.70
2020,10,06,10,52,14.70
2020,10,06,10,53,14.70
2020,10,06,10,54,14.70
2020,10,06,10,55,14.70
2020,10,06,10,56,14.70
2020,10,06,10,57,14.80
2020,10,06,10,58,14.80
2020,10,06,10,59,14.80
2020,10,06,11,00,14.80
2020,10,06,11,01,14.80
2020,10,06,11,02,14.80
2020,10,06,11,03,14.80
2020,10,06,11,04,14.80
2020,10,06,11,05,14.80
2020,10,06,11,06,14.80
2020,10,06,11,07,14.80
2020,10,06,11,08,14.80
2020,10,06,11,09,14.80
2020,10,06,11,10,14.80
2020,10,06,11,11,14.80
2020,10,06,11,12,14.80
2020,10,06,11,13,14.80
2020,10,06,11,14,14.80
2020,10,06,11,15,14.80
2020,10,06,11,16,14.80
2020,10,06,11,17,14.80
2020,10,06,11,18,14.80
2020,10,06,11,19,14.80
2020,10,06,11,20,14.80
2020,10,06,11,21,14.90
2020,10,06,11,22,14.80
2020,10,06,11,23,14.90
2020,10,06,11,24,14.90
2020,10,06,11,25,14.90
2020,10,06,11,26,14.90
2020,10,06,11,27,15.00
2020,10,06,11,28,15.00
2020,10,06,11,29,15.00
2020,10,06,11,30,15.00
2020,10,06,11,31,15.00
2020,10,06,11,32,15.00
2020,10,06,11,33,15.00
2020,10,06,11,34,15.00
2020,10,06,11,35,15.00
2020,10,06,11,36,15.00
2020,10,06,11,37,15.00
2020,10,06,11,38,15.00
2020,10,06,11,39,15.00
2020,10,06,11,40,15.00
2020,10,06,11,41,15.10
2020,10,06,11,42,15.10
2020,10,06,11,43,15.10
2020,10,06,11,44,15.10
2020,10,06,11,45,15.20
2020,10,06,11,46,15.20
2020,10,06,11,47,15.20
2020,10,06,11,48,15.20
2020,10,06,11,49,15.20
2020,10,06,11,50,15.30
2020,10,06,11,51,15.30
2020,10,06,11,52,15.30
2020,10,06,11,53,15.30
2020,10,06,11,54,15.30
2020,10,06,11,55,15.40
2020,10,06,11,56,15.40
2020,10,06,11,57,15.40
2020,10,06,11,58,15.40
2020,10,06,11,59,15.50
2020,10,06,12,00,15.50
2020,10,06,12,01,15.50
2020,10,06,12,02,15.60
2020,10,06,12,03,15.60
2020,10,06,12,04,15.60
2020,10,06,12,05,15.70
2020,10,06,12,06,15.70
2020,10,06,12,07,15.70
2020,10,06,12,08,15.70
2020,10,06,12,09,15.70
2020,10,06,12,10,15.70
2020,10,06,12,11,15.80
2020,10,06,12,12,15.80
2020,10,06,12,13,15.80
2020,10,06,12,14,15.80
2020,10,06,12,15,15.80
2020,10,06,12,16,15.90
2020,10,06,12,17,15.90
2020,10,06,12,18,15.90
2020,10,06,12,19,16.00
2020,10,06,12,20,16.10
2020,10,06,12,21,16.20
2020,10,06,12,22,16.20
2020,10,06,12,23,16.30
2020,10,06,12,24,16.40
2020,10,06,12,25,16.40
2020,10,06,12,26,16.50
2020,10,06,12,27,16.60
2020,10,06,12,28,16.60
2020,10,06,12,29,16.70
2020,10,06,12,30,16.70
2020,10,06,12,31,16.80
2020,10,06,12,32,16.80
2020,10,06,12,33,16.80
2020,10,06,12,34,16.80
2020,10,06,12,35,16.80
2020,10,06,12,36,16.80
2020,10,06,12,37,16.70
2020,10,06,12,38,16.60
2020,10,06,12,39,16.60
2020,10,06,12,40,16.50
2020,10,06,12,41,16.50
2020,10,06,12,42,16.50
2020,10,06,12,43,16.50
2020,10,06,12,44,16.40
2020,10,06,12,45,16.40
2020,10,06,12,46,16.40
2020,10,06,12,47,16.40
2020,10,06,12,48,16.40
2020,10,06,12,49,16.40
2020,10,06,12,50,16.40
2020,10,06,12,51,16.40
2020,10,06,12,52,16.40
2020,10,06,12,53,16.30
2020,10,06,12,54,16.30
2020,10,06,12,55,16.30
2020,10,06,12,56,16.30
2020,10,06,12,57,16.30
2020,10,06,12,58,16.30
2020,10,06,12,59,16.30
2020,10,06,13,00,16.30
2020,10,06,13,01,16.30
2020,10,06,13,02,16.30
2020,10,06,13,03,16.20
2020,10,06,13,04,16.20
2020,10,06,13,05,16.20
2020,10,06,13,06,16.20
2020,10,06,13,07,16.20
2020,10,06,13,08,16.20
2020,10,06,13,09,16.20
2020,10,06,13,10,16.20
2020,10,06,13,11,16.20
2020,10,06,13,12,16.10
2020,10,06,13,13,16.10
2020,10,06,13,14,16.10
2020,10,06,13,15,16.20
2020,10,06,13,16,16.20
2020,10,06,13,17,16.20
2020,10,06,13,18,16.20
2020,10,06,13,19,16.20
2020,10,06,13,20,16.20
2020,10,06,13,21,16.30
2020,10,06,13,22,16.30
2020,10,06,13,23,16.30
2020,10,06,13,24,16.30
2020,10,06,13,25,16.30
2020,10,06,13,26,16.30
2020,10,06,13,27,16.30
2020,10,06,13,28,16.30
2020,10,06,13,29,16.30
2020,10,06,13,30,16.30
2020,10,06,13,31,16.30
2020,10,06,13,32,16.40
2020,10,06,13,33,16.40
2020,10,06,13,34,16.50
2020,10,06,13,35,16.50
2020,10,06,13,36,16.60
2020,10,06,13,37,16.60
2020,10,06,13,38,16.70
2020,10,06,13,39,16.80
2020,10,06,13,40,16.90
2020,10,06,13,41,17.00
2020,10,06,13,42,17.00
2020,10,06,13,43,17.00
2020,10,06,13,44,17.10
2020,10,06,13,45,17.10
2020,10,06,13,46,17.20
2020,10,06,13,47,17.20
2020,10,06,13,48,17.30
2020,10,06,13,49,17.40
2020,10,06,13,50,17.50
2020,10,06,13,51,17.60
2020,10,06,13,52,17.70
2020,10,06,13,53,17.80
2020,10,06,13,54,17.90
2020,10,06,13,55,18.00
2020,10,06,13,56,18.00
2020,10,06,13,57,18.00
2020,10,06,13,58,18.10
2020,10,06,13,59,18.10
2020,10,06,14,00,18.20
2020,10,06,14,01,18.20
2020,10,06,14,02,18.20
2020,10,06,14,03,18.20
2020,10,06,14,04,18.30
2020,10,06,14,05,18.30
2020,10,06,14,06,18.30
2020,10,06,14,07,18.30
2020,10,06,14,08,18.40
2020,10,06,14,09,18.40
2020,10,06,14,10,18.40
2020,10,06,14,11,18.40
2020,10,06,14,12,18.40
2020,10,06,14,13,18.50
2020,10,06,14,14,18.50
2020,10,06,14,15,18.60
2020,10,06,14,16,18.60
2020,10,06,14,17,18.60
2020,10,06,14,18,18.60
2020,10,06,14,19,18.60
2020,10,06,14,20,18.70
2020,10,06,14,21,18.70
2020,10,06,14,22,18.80
2020,10,06,14,23,18.90
2020,10,06,14,24,19.00
2020,10,06,14,25,19.10
2020,10,06,14,26,19.10
2020,10,06,14,27,19.10
2020,10,06,14,28,19.10
2020,10,06,14,29,19.10
2020,10,06,14,30,19.10
2020,10,06,14,31,19.00
2020,10,06,14,32,19.00
2020,10,06,14,33,19.00
2020,10,06,14,34,19.10
2020,10,06,14,35,19.10
2020,10,06,14,36,19.20
2020,10,06,14,37,19.20
2020,10,06,14,38,19.30
2020,10,06,14,39,19.30
2020,10,06,14,40,19.30
2020,10,06,14,41,19.30
2020,10,06,14,42,19.30
2020,10,06,14,43,19.30
2020,10,06,14,44,19.30
2020,10,06,14,45,19.30
2020,10,06,14,46,19.20
2020,10,06,14,47,19.20
2020,10,06,14,48,19.20
2020,10,06,14,49,19.30
2020,10,06,14,50,19.30
2020,10,06,14,51,19.30
2020,10,06,14,52,19.30
2020,10,06,14,53,19.30
2020,10,06,14,54,19.30
2020,10,06,14,55,19.30
2020,10,06,14,56,19.30
2020,10,06,14,57,19.30
2020,10,06,14,58,19.30
2020,10,06,14,59,19.30
2020,10,06,15,00,19.30
2020,10,06,15,01,19.30
2020,10,06,15,02,19.30
2020,10,06,15,03,19.30
2020,10,06,15,04,19.40
2020,10,06,15,05,19.40
2020,10,06,15,06,19.30
2020,10,06,15,07,19.30
2020,10,06,15,08,19.30
2020,10,06,15,09,19.30
2020,10,06,15,10,19.30
2020,10,06,15,11,19.30
2020,10,06,15,12,19.30
2020,10,06,15,13,19.20
2020,10,06,15,14,19.20
2020,10,06,15,15,19.30
2020,10,06,15,16,19.30
2020,10,06,15,17,19.30
2020,10,06,15,18,19.30
2020,10,06,15,19,19.30
2020,10,06,15,20,19.30
2020,10,06,15,21,19.30
2020,10,06,15,22,19.30
2020,10,06,15,23,19.30
2020,10,06,15,24,19.20
2020,10,06,15,25,19.20
2020,10,06,15,26,19.10
2020,10,06,15,27,19.10
2020,10,06,15,28,19.10
2020,10,06,15,29,19.00
2020,10,06,15,30,19.00
2020,10,06,15,31,18.90
2020,10,06,15,32,18.90
2020,10,06,15,33,18.80
2020,10,06,15,34,18.80
2020,10,06,15,35,18.80
2020,10,06,15,36,18.70
2020,10,06,15,37,18.80
2020,10,06,15,38,18.80
2020,10,06,15,39,18.80
2020,10,06,15,40,18.90
2020,10,06,15,41,18.90
2020,10,06,15,42,19.00
2020,10,06,15,43,19.00
2020,10,06,15,44,19.10
2020,10,06,15,45,19.20
2020,10,06,15,46,19.20
2020,10,06,15,47,19.20
2020,10,06,15,48,19.30
2020,10,06,15,49,19.40
2020,10,06,15,50,19.40
2020,10,06,15,51,19.50
2020,10,06,15,52,19.50
2020,10,06,15,53,19.60
2020,10,06,15,54,19.70
2020,10,06,15,55,19.70
2020,10,06,15,56,19.70
2020,10,06,15,57,19.70
2020,10,06,15,58,19.80
2020,10,06,15,59,19.80
2020,10,06,16,00,19.80
2020,10,06,16,01,19.90
2020,10,06,16,02,19.90
2020,10,06,16,03,20.00
2020,10,06,16,04,20.00
2020,10,06,16,05,20.10
2020,10,06,16,06,20.20
2020,10,06,16,07,20.20
2020,10,06,16,08,20.20
2020,10,06,16,09,20.20
2020,10,06,16,10,20.30
2020,10,06,16,11,20.30
2020,10,06,16,12,20.30
2020,10,06,16,13,20.30
2020,10,06,16,14,20.30
2020,10,06,16,15,20.30
2020,10,06,16,16,20.30
2020,10,06,16,17,20.30
2020,10,06,16,18,20.30
2020,10,06,16,19,20.30
2020,10,06,16,20,20.40
2020,10,06,16,21,20.40
2020,10,06,16,22,20.40
2020,10,06,16,23,20.40
2020,10,06,16,24,20.40
2020,10,06,16,25,20.50
2020,10,06,16,26,20.40
2020,10,06,16,27,20.40
2020,10,06,16,28,20.40
2020,10,06,16,29,20.40
2020,10,06,16,30,20.40
2020,10,06,16,31,20.40
2020,10,06,16,32,20.40
2020,10,06,16,33,20.40
2020,10,06,16,34,20.40
2020,10,06,16,35,20.40
2020,10,06,16,36,20.50
2020,10,06,16,37,20.50
2020,10,06,16,38,20.40
2020,10,06,16,39,20.40
2020,10,06,16,40,20.40
2020,10,06,16,41,20.40
2020,10,06,16,42,20.40
2020,10,06,16,43,20.40
2020,10,06,16,44,20.40
2020,10,06,16,45,20.30
2020,10,06,16,46,20.30
2020,10,06,16,47,20.30
2020,10,06,16,48,20.30
2020,10,06,16,49,20.30
2020,10,06,16,50,20.40
2020,10,06,16,51,20.40
2020,10,06,16,52,20.40
2020,10,06,16,53,20.40
2020,10,06,16,54,20.40
2020,10,06,16,55,20.50
2020,10,06,16,56,20.50
2020,10,06,16,57,20.50
2020,10,06,16,58,20.50
2020,10,06,16,59,20.50
2020,10,06,17,00,20.50
2020,10,06,17,01,20.40
2020,10,06,17,02,20.40
2020,10,06,17,03,20.40
2020,10,06,17,04,20.40
2020,10,06,17,05,20.40
2020,10,06,17,06,20.40
2020,10,06,17,07,20.40
2020,10,06,17,08,20.40
2020,10,06,17,09,20.50
2020,10,06,17,10,20.50
2020,10,06,17,11,20.50
2020,10,06,17,12,20.50
2020,10,06,17,13,20.50
2020,10,06,17,14,20.50
2020,10,06,17,15,20.60
2020,10,06,17,16,20.60
2020,10,06,17,17,20.60
2020,10,06,17,18,20.60
2020,10,06,17,19,20.60